| time (UTC) | temp F | wind direction | speed MPH | gust MPH | rain 1hr in | rain 24hr in | rain mn in | humidity % | barometer mb |
| 20260505055123 | 55 | 49 | 5.0 | 6.0 | 0.19 | 0.03 | 0.03 | 86 | 1006.5 |
| 20260505054620 | 61 | 82 | 4.0 | 5.0 | 0.12 | 0.02 | 0.02 | 75 | 1006.2 |
| 20260505054118 | 62 | 49 | 6.0 | 9.0 | 0.00 | 0.00 | 0.00 | 67 | 1005.9 |
| 20260505053615 | 65 | 91 | 3.0 | 5.0 | 0.00 | 0.00 | 0.00 | 61 | 1005.2 |
| 20260505053111 | 66 | 47 | 3.0 | 5.0 | 0.00 | 0.00 | 0.00 | 54 | 1005.5 |
| 20260505052608 | 68 | 36 | 5.0 | 7.0 | 0.00 | 0.00 | 0.00 | 53 | 1005.5 |
| 20260505052106 | 69 | 75 | 5.0 | 7.0 | 0.00 | 0.00 | 0.00 | 52 | 1005.5 |
| 20260505051603 | 69 | 45 | 4.0 | 5.0 | 0.00 | 0.00 | 0.00 | 54 | 1005.5 |
| 20260505051101 | 70 | 33 | 6.0 | 7.0 | 0.00 | 0.00 | 0.00 | 67 | 1005.2 |
| 20260505050558 | 69 | 68 | 3.0 | 5.0 | 0.00 | 0.00 | 0.00 | 76 | 1004.4 |
| 20260505041526 | 70 | 203 | 4.0 | 5.0 | 0.00 | 0.00 | 0.00 | 74 | 1004.4 |
| 20260505041024 | 70 | 174 | 4.0 | 7.0 | 0.00 | 0.00 | 0.00 | 73 | 1004.9 |
| 20260505040521 | 71 | 173 | 3.0 | 6.0 | 0.00 | 0.00 | 0.00 | 73 | 1004.4 |
| 20260505040018 | 71 | 151 | 3.0 | 6.0 | 0.00 | 0.00 | 0.00 | 73 | 1004.4 |
| 20260505035514 | 71 | 148 | 3.0 | 3.0 | 0.00 | 0.00 | 0.00 | 72 | 1004.9 |
| 20260505035011 | 71 | 189 | 3.0 | 6.0 | 0.00 | 0.00 | 0.00 | 72 | 1004.9 |
| 20260505034507 | 71 | 174 | 6.0 | 8.0 | 0.00 | 0.00 | 0.00 | 72 | 1004.4 |
| 20260505034004 | 71 | 134 | 4.0 | 5.0 | 0.00 | 0.00 | 0.00 | 72 | 1004.4 |
| 20260505033501 | 71 | 166 | 1.0 | 5.0 | 0.00 | 0.00 | 0.00 | 72 | 1004.4 |
| 20260505032959 | 71 | 197 | 3.0 | 5.0 | 0.00 | 0.00 | 0.00 | 71 | 1004.4 |
| 20260505032457 | 71 | 187 | 3.0 | 5.0 | 0.00 | 0.00 | 0.00 | 71 | 1004.9 |
| 20260505031953 | 72 | 150 | 3.0 | 3.0 | 0.00 | 0.00 | 0.00 | 70 | 1004.4 |
| 20260505031450 | 72 | 160 | 4.0 | 6.0 | 0.00 | 0.00 | 0.00 | 69 | 1004.4 |
| 20260505030947 | 72 | 183 | 6.0 | 8.0 | 0.00 | 0.00 | 0.00 | 68 | 1004.1 |
| 20260505030443 | 72 | 171 | 2.0 | 2.0 | 0.00 | 0.00 | 0.00 | 68 | 1004.1 |
| 20260505025938 | 73 | 184 | 3.0 | 5.0 | 0.00 | 0.00 | 0.00 | 67 | 1004.4 |
| 20260505025435 | 73 | 171 | 3.0 | 3.0 | 0.00 | 0.00 | 0.00 | 66 | 1004.4 |
| 20260505024934 | 73 | 153 | 3.0 | 3.0 | 0.00 | 0.00 | 0.00 | 66 | 1004.4 |
| 20260505024431 | 73 | 153 | 2.0 | 2.0 | 0.00 | 0.00 | 0.00 | 65 | 1004.1 |
| 20260505023928 | 74 | 170 | 3.0 | 5.0 | 0.00 | 0.00 | 0.00 | 65 | 1004.1 |
| 20260505023425 | 74 | 200 | 4.0 | 5.0 | 0.00 | 0.00 | 0.00 | 64 | 1004.1 |
| 20260505022923 | 74 | 202 | 4.0 | 5.0 | 0.00 | 0.00 | 0.00 | 63 | 1003.7 |
| 20260505022421 | 74 | 201 | 7.0 | 9.0 | 0.00 | 0.00 | 0.00 | 63 | 1004.1 |
| 20260505021917 | 74 | 184 | 4.0 | 5.0 | 0.00 | 0.00 | 0.00 | 63 | 1003.7 |
| 20260505021413 | 74 | 162 | 2.0 | 2.0 | 0.00 | 0.00 | 0.00 | 63 | 1003.7 |
| 20260505020909 | 74 | 161 | 2.0 | 3.0 | 0.00 | 0.00 | 0.00 | 63 | 1003.7 |
| 20260505020404 | 74 | 173 | 1.0 | 2.0 | 0.00 | 0.00 | 0.00 | 63 | 1003.7 |
| 20260505015902 | 75 | 184 | 2.0 | 3.0 | 0.00 | 0.00 | 0.00 | 62 | 1003.7 |
| 20260505015359 | 75 | 160 | 1.0 | 1.0 | 0.00 | 0.00 | 0.00 | 61 | 1003.7 |
| 20260505014856 | 75 | 164 | 1.0 | 1.0 | 0.00 | 0.00 | 0.00 | 61 | 1003.4 |
| 20260505014353 | 75 | 183 | 2.0 | 2.0 | 0.00 | 0.00 | 0.00 | 60 | 1003.7 |
| 20260505013850 | 75 | 167 | 0.0 | 0.0 | 0.00 | 0.00 | 0.00 | 59 | 1003.1 |
| 20260505013347 | 76 | 157 | 1.0 | 1.0 | 0.00 | 0.00 | 0.00 | 58 | 1003.1 |
| 20260505012845 | 76 | 158 | 0.0 | 0.0 | 0.00 | 0.00 | 0.00 | 57 | 1003.4 |
| 20260505012343 | 76 | 168 | 0.0 | 0.0 | 0.00 | 0.00 | 0.00 | 56 | 1003.1 |
| 20260505011839 | 77 | 161 | 1.0 | 2.0 | 0.00 | 0.00 | 0.00 | 55 | 1002.7 |
| 20260505011336 | 77 | 207 | 3.0 | 5.0 | 0.00 | 0.00 | 0.00 | 54 | 1003.1 |
| 20260505010832 | 77 | 160 | 1.0 | 2.0 | 0.00 | 0.00 | 0.00 | 54 | 1002.7 |
| 20260505010327 | 77 | 160 | 3.0 | 5.0 | 0.00 | 0.00 | 0.00 | 53 | 1002.7 |
| 20260505005824 | 78 | 151 | 0.0 | 1.0 | 0.00 | 0.00 | 0.00 | 53 | 1002.7 |
| 20260505005321 | 78 | 154 | 0.0 | 0.0 | 0.00 | 0.00 | 0.00 | 52 | 1002.7 |
| 20260505004819 | 78 | 155 | 0.0 | 0.0 | 0.00 | 0.00 | 0.00 | 51 | 1002.7 |
| 20260505004315 | 79 | 149 | 1.0 | 1.0 | 0.00 | 0.00 | 0.00 | 50 | 1002.7 |
| 20260505003812 | 79 | 163 | 1.0 | 1.0 | 0.00 | 0.00 | 0.00 | 49 | 1002.4 |
| 20260505003309 | 79 | 151 | 0.0 | 0.0 | 0.00 | 0.00 | 0.00 | 50 | 1002.4 |
| 20260505002805 | 79 | 183 | 1.0 | 2.0 | 0.00 | 0.00 | 0.00 | 50 | 1002.4 |
| 20260505002304 | 80 | 177 | 2.0 | 2.0 | 0.00 | 0.00 | 0.00 | 49 | 1002.4 |
| 20260505001801 | 80 | 167 | 1.0 | 1.0 | 0.00 | 0.00 | 0.00 | 48 | 1002.4 |
| 20260505001257 | 80 | 166 | 2.0 | 2.0 | 0.00 | 0.00 | 0.00 | 50 | 1002.4 |
| 20260505000755 | 80 | 176 | 1.0 | 2.0 | 0.00 | 0.00 | 0.00 | 49 | 1002.4 |
| 20260505000252 | 80 | 155 | 1.0 | 1.0 | 0.00 | 0.00 | 0.00 | 48 | 1002.4 |
| 20260504235749 | 80 | 193 | 0.0 | 0.0 | 0.00 | 0.00 | 0.00 | 48 | 1002.4 |
| 20260504235245 | 80 | 149 | 0.0 | 0.0 | 0.00 | 0.00 | 0.00 | 48 | 1002.4 |
| 20260504234742 | 81 | 156 | 2.0 | 2.0 | 0.00 | 0.00 | 0.00 | 48 | 1002.4 |
| 20260504234240 | 80 | 178 | 1.0 | 1.0 | 0.00 | 0.00 | 0.00 | 47 | 1002.4 |
| 20260504233736 | 80 | 164 | 1.0 | 1.0 | 0.00 | 0.00 | 0.00 | 48 | 1002.4 |
| 20260504233231 | 80 | 179 | 3.0 | 3.0 | 0.00 | 0.00 | 0.00 | 46 | 1002.4 |
| 20260504232729 | 80 | 179 | 3.0 | 5.0 | 0.00 | 0.00 | 0.00 | 46 | 1002.4 |
| 20260504232226 | 80 | 205 | 3.0 | 5.0 | 0.00 | 0.00 | 0.00 | 47 | 1002.4 |
| 20260504231722 | 81 | 211 | 4.0 | 5.0 | 0.00 | 0.00 | 0.00 | 46 | 1002.4 |
| 20260504231219 | 81 | 176 | 0.0 | 1.0 | 0.00 | 0.00 | 0.00 | 46 | 1002.7 |
| 20260504230715 | 81 | 210 | 5.0 | 6.0 | 0.00 | 0.00 | 0.00 | 46 | 1002.4 |
| 20260504230214 | 81 | 253 | 5.0 | 6.0 | 0.00 | 0.00 | 0.00 | 46 | 1002.4 |
| 20260504225712 | 82 | 229 | 4.0 | 6.0 | 0.00 | 0.00 | 0.00 | 45 | 1002.4 |
| 20260504225208 | 82 | 256 | 5.0 | 9.0 | 0.00 | 0.00 | 0.00 | 44 | 1002.4 |
| 20260504224705 | 82 | 189 | 3.0 | 3.0 | 0.00 | 0.00 | 0.00 | 44 | 1002.4 |
| 20260504224203 | 82 | 173 | 2.0 | 2.0 | 0.00 | 0.00 | 0.00 | 45 | 1002.7 |
| 20260504223659 | 82 | 262 | 7.0 | 8.0 | 0.00 | 0.00 | 0.00 | 44 | 1002.7 |
| 20260504223154 | 82 | 192 | 5.0 | 6.0 | 0.00 | 0.00 | 0.00 | 45 | 1002.7 |
| 20260504222652 | 83 | 251 | 6.0 | 7.0 | 0.00 | 0.00 | 0.00 | 44 | 1002.7 |
| 20260504222148 | 82 | 272 | 5.0 | 8.0 | 0.00 | 0.00 | 0.00 | 43 | 1002.4 |
| 20260504221646 | 82 | 192 | 6.0 | 8.0 | 0.00 | 0.00 | 0.00 | 43 | 1002.7 |
| 20260504221143 | 83 | 230 | 5.0 | 7.0 | 0.00 | 0.00 | 0.00 | 44 | 1002.7 |
| 20260504220639 | 82 | 192 | 3.0 | 5.0 | 0.00 | 0.00 | 0.00 | 45 | 1002.7 |
| 20260504220137 | 83 | 236 | 7.0 | 9.0 | 0.00 | 0.00 | 0.00 | 43 | 1002.7 |
| 20260504215633 | 82 | 192 | 3.0 | 5.0 | 0.00 | 0.00 | 0.00 | 44 | 1002.7 |
| 20260504215131 | 81 | 262 | 7.0 | 8.0 | 0.00 | 0.00 | 0.00 | 43 | 1002.7 |
| 20260504214626 | 81 | 276 | 6.0 | 8.0 | 0.00 | 0.00 | 0.00 | 43 | 1002.7 |
| 20260504214123 | 81 | 228 | 3.0 | 6.0 | 0.00 | 0.00 | 0.00 | 45 | 1003.1 |
| 20260504213619 | 81 | 260 | 5.0 | 7.0 | 0.00 | 0.00 | 0.00 | 45 | 1003.1 |
| 20260504213116 | 81 | 203 | 5.0 | 7.0 | 0.00 | 0.00 | 0.00 | 44 | 1003.1 |
| 20260504212612 | 81 | 260 | 8.0 | 9.0 | 0.00 | 0.00 | 0.00 | 46 | 1003.1 |
| 20260504212110 | 80 | 253 | 6.0 | 7.0 | 0.00 | 0.00 | 0.00 | 46 | 1003.1 |
| 20260504211607 | 81 | 271 | 5.0 | 8.0 | 0.00 | 0.00 | 0.00 | 46 | 1003.1 |
| 20260504211103 | 81 | 255 | 8.0 | 9.0 | 0.00 | 0.00 | 0.00 | 45 | 1003.1 |
| 20260504210601 | 81 | 198 | 5.0 | 7.0 | 0.00 | 0.00 | 0.00 | 45 | 1003.1 |
| 20260504210057 | 80 | 200 | 5.0 | 7.0 | 0.00 | 0.00 | 0.00 | 45 | 1003.1 |
| 20260504205555 | 80 | 241 | 7.0 | 8.0 | 0.00 | 0.00 | 0.00 | 44 | 1003.1 |
| 20260504205053 | 80 | 254 | 8.0 | 9.0 | 0.00 | 0.00 | 0.00 | 45 | 1003.4 |
| 20260504204550 | 80 | 250 | 5.0 | 6.0 | 0.00 | 0.00 | 0.00 | 48 | 1003.4 |
| 20260504204049 | 80 | 189 | 6.0 | 9.0 | 0.00 | 0.00 | 0.00 | 47 | 1003.1 |
| 20260504203547 | 80 | 196 | 4.0 | 5.0 | 0.00 | 0.00 | 0.00 | 46 | 1003.7 |
| 20260504203044 | 80 | 143 | 8.0 | 10.0 | 0.00 | 0.00 | 0.00 | 45 | 1003.4 |
| 20260504202539 | 80 | 144 | 7.0 | 8.0 | 0.00 | 0.00 | 0.00 | 46 | 1003.7 |
| 20260504202037 | 80 | 193 | 9.0 | 13.0 | 0.00 | 0.00 | 0.00 | 46 | 1003.7 |
| 20260504201533 | 81 | 221 | 9.0 | 13.0 | 0.00 | 0.00 | 0.00 | 46 | 1003.4 |
| 20260504201032 | 80 | 213 | 4.0 | 6.0 | 0.00 | 0.00 | 0.00 | 48 | 1003.4 |
| 20260504200527 | 81 | 165 | 6.0 | 7.0 | 0.00 | 0.00 | 0.00 | 47 | 1003.7 |
| 20260504200025 | 81 | 256 | 7.0 | 9.0 | 0.00 | 0.00 | 0.00 | 47 | 1003.1 |
| 20260504195520 | 82 | 206 | 7.0 | 8.0 | 0.00 | 0.00 | 0.00 | 47 | 1003.4 |
| 20260504195017 | 81 | 204 | 14.0 | 16.0 | 0.00 | 0.00 | 0.00 | 46 | 1003.7 |
| 20260504194514 | 81 | 188 | 7.0 | 9.0 | 0.00 | 0.00 | 0.00 | 46 | 1003.4 |
| 20260504194009 | 81 | 212 | 7.0 | 9.0 | 0.00 | 0.00 | 0.00 | 48 | 1003.4 |
| 20260504193506 | 80 | 250 | 8.0 | 10.0 | 0.00 | 0.00 | 0.00 | 47 | 1003.4 |
| 20260504193005 | 80 | 178 | 6.0 | 10.0 | 0.00 | 0.00 | 0.00 | 48 | 1003.4 |
| 20260504192503 | 80 | 212 | 7.0 | 10.0 | 0.00 | 0.00 | 0.00 | 49 | 1003.4 |
| 20260504192001 | 80 | 222 | 9.0 | 11.0 | 0.00 | 0.00 | 0.00 | 48 | 1003.4 |
| 20260504191458 | 80 | 229 | 11.0 | 16.0 | 0.00 | 0.00 | 0.00 | 48 | 1003.7 |
| 20260504190954 | 80 | 203 | 5.0 | 7.0 | 0.00 | 0.00 | 0.00 | 48 | 1003.4 |
| 20260504190449 | 80 | 198 | 3.0 | 3.0 | 0.00 | 0.00 | 0.00 | 49 | 1003.4 |
| 20260504185946 | 80 | 190 | 5.0 | 6.0 | 0.00 | 0.00 | 0.00 | 49 | 1003.4 |
| 20260504185444 | 80 | 169 | 5.0 | 7.0 | 0.00 | 0.00 | 0.00 | 49 | 1003.7 |
| 20260504184939 | 80 | 218 | 4.0 | 6.0 | 0.00 | 0.00 | 0.00 | 49 | 1003.7 |
| 20260504184436 | 80 | 259 | 5.0 | 8.0 | 0.00 | 0.00 | 0.00 | 47 | 1003.7 |
| 20260504183931 | 78 | 205 | 2.0 | 2.0 | 0.00 | 0.00 | 0.00 | 48 | 1003.7 |
| 20260504183429 | 79 | 205 | 6.0 | 7.0 | 0.00 | 0.00 | 0.00 | 47 | 1003.7 |
| 20260504182927 | 79 | 273 | 6.0 | 8.0 | 0.00 | 0.00 | 0.00 | 47 | 1004.1 |
| 20260504182423 | 78 | 236 | 6.0 | 7.0 | 0.00 | 0.00 | 0.00 | 46 | 1003.7 |
| 20260504181921 | 79 | 218 | 4.0 | 6.0 | 0.00 | 0.00 | 0.00 | 49 | 1004.1 |
| 20260504181418 | 78 | 186 | 4.0 | 6.0 | 0.00 | 0.00 | 0.00 | 50 | 1004.1 |
| 20260504180916 | 78 | 216 | 7.0 | 7.0 | 0.00 | 0.00 | 0.00 | 48 | 1004.1 |
| 20260504180415 | 78 | 216 | 5.0 | 7.0 | 0.00 | 0.00 | 0.00 | 49 | 1004.4 |
| 20260504175912 | 77 | 163 | 5.0 | 8.0 | 0.00 | 0.00 | 0.00 | 50 | 1004.1 |
| 20260504175409 | 77 | 242 | 9.0 | 11.0 | 0.00 | 0.00 | 0.00 | 49 | 1004.1 |
| 20260504174907 | 77 | 226 | 8.0 | 11.0 | 0.00 | 0.00 | 0.00 | 48 | 1004.4 |
| 20260504174404 | 76 | 228 | 8.0 | 9.0 | 0.00 | 0.00 | 0.00 | 48 | 1004.1 |
| 20260504173902 | 76 | 196 | 3.0 | 5.0 | 0.00 | 0.00 | 0.00 | 49 | 1004.4 |
| 20260504173358 | 76 | 237 | 7.0 | 8.0 | 0.00 | 0.00 | 0.00 | 48 | 1004.1 |
| 20260504172855 | 77 | 152 | 5.0 | 7.0 | 0.00 | 0.00 | 0.00 | 49 | 1004.4 |
| 20260504172352 | 76 | 264 | 8.0 | 9.0 | 0.00 | 0.00 | 0.00 | 49 | 1004.1 |
| 20260504171847 | 75 | 180 | 3.0 | 5.0 | 0.00 | 0.00 | 0.00 | 50 | 1004.1 |
| 20260504171345 | 75 | 210 | 6.0 | 8.0 | 0.00 | 0.00 | 0.00 | 51 | 1004.9 |
| 20260504170842 | 76 | 289 | 6.0 | 8.0 | 0.00 | 0.00 | 0.00 | 51 | 1004.4 |
| 20260504170338 | 76 | 230 | 7.0 | 7.0 | 0.00 | 0.00 | 0.00 | 49 | 1004.9 |
| 20260504160257 | 72 | 218 | 5.0 | 7.0 | 0.00 | 0.00 | 0.00 | 53 | 1004.4 |
| 20260504150722 | 70 | 218 | 11.0 | 15.0 | 0.00 | 0.00 | 0.00 | 54 | 1004.9 |
| 20260504150219 | 70 | 225 | 8.0 | 11.0 | 0.00 | 0.00 | 0.00 | 54 | 1005.2 |
| 20260504141148 | 68 | 188 | 4.0 | 6.0 | 0.00 | 0.00 | 0.00 | 58 | 1004.9 |
| 20260504140645 | 68 | 248 | 5.0 | 7.0 | 0.00 | 0.00 | 0.00 | 58 | 1005.2 |
| 20260504140140 | 67 | 205 | 6.0 | 8.0 | 0.00 | 0.00 | 0.00 | 58 | 1004.9 |
| 20260504130609 | 65 | 213 | 3.0 | 5.0 | 0.00 | 0.00 | 0.00 | 59 | 1004.4 |
| 20260504130106 | 65 | 140 | 6.0 | 8.0 | 0.00 | 0.00 | 0.00 | 59 | 1004.4 |
| 20260504110451 | 64 | 208 | 3.0 | 3.0 | 0.00 | 0.00 | 0.00 | 58 | 1005.2 |
| 20260504100413 | 66 | 208 | 11.0 | 14.0 | 0.00 | 0.00 | 0.00 | 53 | 1004.9 |
| 20260504081806 | 66 | 179 | 6.0 | 7.0 | 0.00 | 0.00 | 0.00 | 53 | 1005.9 |
| 20260504081303 | 66 | 198 | 6.0 | 7.0 | 0.00 | 0.00 | 0.00 | 53 | 1005.9 |
| 20260504080759 | 66 | 213 | 9.0 | 15.0 | 0.00 | 0.00 | 0.00 | 53 | 1005.9 |
| 20260504080255 | 66 | 195 | 7.0 | 9.0 | 0.00 | 0.00 | 0.00 | 53 | 1005.9 |
| 20260504070223 | 66 | 156 | 2.0 | 3.0 | 0.00 | 0.00 | 0.00 | 54 | 1006.9 |
| 20260504060143 | 64 | 148 | 0.0 | 0.0 | 0.00 | 0.00 | 0.00 | 55 | 1007.9 |